PACCTY Weather Reports


Display with metric or nautical units.
time (UTC)temp
F
wind
direction
speed
MPH
gust
MPH
rain 1hr
in
rain 24hr
in
rain mn
in
humidity
%
barometer
mb
20210927172839 58 197 0.0 3.0 0.00 0.39 0.29 99 1010.7
20210927172339 58 203 2.0 3.0 0.00 0.39 0.29 99 1010.8
20210927171839 58 210 2.0 3.0 0.00 0.39 0.29 99 1010.8
20210927171340 57 0 1.0 3.0 0.00 0.39 0.29 99 1010.7
20210927170841 58 204 0.0 3.0 0.00 0.39 0.29 99 1010.8
20210927170340 57 205 1.0 3.0 0.00 0.39 0.29 99 1010.6
20210927165840 58 198 2.0 2.0 0.00 0.39 0.29 99 1010.8
20210927165340 58 214 0.0 4.0 0.00 0.39 0.29 99 1010.5
20210927164839 58 0 0.0 4.0 0.00 0.39 0.29 99 1010.5
20210927164340 58 205 0.0 4.0 0.00 0.39 0.29 99 1010.7
20210927163839 58 212 1.0 3.0 0.00 0.39 0.29 99 1010.6
20210927163340 58 0 2.0 2.0 0.00 0.39 0.29 99 1010.8
20210927162839 58 0 0.0 0.0 0.00 0.39 0.29 99 1011.0
20210927162339 58 0 0.0 0.0 0.00 0.39 0.29 99 1010.8
20210927161839 57 0 0.0 0.0 0.00 0.39 0.29 99 1010.6
20210927161340 57 0 0.0 0.0 0.00 0.39 0.29 99 1010.3
20210927160839 57 0 0.0 0.0 0.00 0.39 0.29 99 1010.3
20210927160340 57 0 0.0 0.0 0.00 0.39 0.29 99 1010.3
20210927155839 57 0 0.0 0.0 0.00 0.39 0.29 99 1010.3
20210927155339 57 0 0.0 0.0 0.00 0.39 0.29 99 1010.2
20210927154839 56 0 0.0 0.0 0.00 0.39 0.29 99 1010.3
20210927154343 56 0 0.0 0.0 0.00 0.39 0.29 99 1010.5
20210927153839 56 0 0.0 0.0 0.01 0.39 0.29 99 1010.3
20210927153339 56 0 0.0 0.0 0.01 0.39 0.29 99 1010.3
20210927152839 56 0 0.0 0.0 0.01 0.39 0.29 99 1010.4
20210927152339 56 0 0.0 0.0 0.01 0.39 0.29 99 1010.3
20210927151840 56 0 0.0 0.0 0.01 0.39 0.29 99 1010.2
20210927151339 56 0 0.0 0.0 0.01 0.39 0.29 99 1010.2
20210927150839 55 0 0.0 0.0 0.01 0.39 0.29 99 1009.9
20210927150339 56 0 0.0 0.0 0.01 0.39 0.29 99 1010.1
20210927145839 56 0 0.0 0.0 0.01 0.38 0.29 99 1010.5
20210927145339 55 0 0.0 0.0 0.01 0.38 0.29 99 1010.8
20210927144839 55 0 0.0 0.0 0.01 0.38 0.29 99 1010.6
20210927144340 55 0 0.0 0.0 0.01 0.38 0.29 99 1010.6
20210927143839 55 0 0.0 0.0 0.00 0.38 0.29 99 1010.5
20210927143340 55 0 0.0 0.0 0.00 0.38 0.28 99 1010.4
20210927142839 55 0 0.0 0.0 0.00 0.38 0.28 99 1010.4
20210927142339 55 0 0.0 0.0 0.00 0.38 0.28 99 1010.4
20210927141839 55 0 0.0 0.0 0.00 0.38 0.28 99 1010.5
20210927141341 55 0 0.0 0.0 0.00 0.38 0.28 99 1010.4
20210927140839 55 0 0.0 0.0 0.00 0.38 0.28 99 1010.4
20210927140339 55 0 0.0 0.0 0.00 0.38 0.28 99 1010.3
20210927135839 55 0 0.0 0.0 0.00 0.38 0.28 99 1010.3
20210927135339 55 0 0.0 0.0 0.00 0.38 0.28 99 1010.5
20210927134839 55 0 0.0 0.0 0.00 0.38 0.28 99 1010.5
20210927133839 55 0 0.0 0.0 0.00 0.38 0.28 99 1010.3
20210927133339 55 0 0.0 0.0 0.00 0.38 0.28 99 1010.4
20210927132839 55 0 0.0 0.0 0.00 0.38 0.28 99 1010.1
20210927132339 55 0 0.0 0.0 0.00 0.38 0.28 99 1010.7
20210927131839 55 0 0.0 0.0 0.00 0.38 0.28 99 1010.2
20210927131340 55 0 0.0 0.0 0.00 0.38 0.28 99 1010.5
20210927130839 55 0 0.0 0.0 0.00 0.38 0.28 99 1010.6
20210927130339 55 0 0.0 0.0 0.00 0.38 0.28 99 1010.7
20210927125839 55 0 0.0 0.0 0.00 0.38 0.28 99 1010.7
20210927125339 55 0 0.0 0.0 0.00 0.38 0.28 99 1010.4
20210927124839 55 0 0.0 0.0 0.00 0.38 0.28 99 1010.4
20210927124340 55 0 0.0 0.0 0.00 0.38 0.28 99 1010.4
20210927123839 55 0 0.0 0.0 0.00 0.38 0.28 99 1010.5
20210927123339 55 0 0.0 0.0 0.00 0.38 0.28 99 1010.4
20210927122839 55 0 0.0 0.0 0.00 0.38 0.28 99 1010.7
20210927122339 55 0 0.0 0.0 0.00 0.38 0.28 99 1010.7
20210927121839 55 0 0.0 0.0 0.00 0.38 0.28 99 1010.6
20210927121340 55 0 0.0 0.0 0.00 0.38 0.28 99 1010.5
20210927120839 55 0 0.0 0.0 0.00 0.38 0.28 99 1010.4
20210927120339 55 0 0.0 0.0 0.00 0.38 0.28 99 1010.4
20210927115839 55 0 0.0 0.0 0.00 0.38 0.28 99 1010.4
20210927115340 55 0 0.0 0.0 0.00 0.38 0.28 99 1010.4
20210927114840 55 0 0.0 0.0 0.00 0.38 0.28 99 1010.5
20210927114340 55 0 0.0 0.0 0.00 0.38 0.28 99 1010.5
20210927113839 55 0 0.0 0.0 0.00 0.38 0.28 99 1010.5
20210927113340 56 0 0.0 0.0 0.00 0.38 0.28 99 1010.6
20210927112839 56 0 0.0 0.0 0.00 0.38 0.28 99 1010.6
20210927112340 56 0 0.0 0.0 0.00 0.38 0.28 99 1010.8
20210927111839 56 0 0.0 0.0 0.00 0.38 0.28 99 1010.9
20210927111340 56 0 0.0 0.0 0.00 0.38 0.28 99 1010.8
20210927110839 56 0 0.0 0.0 0.00 0.38 0.28 99 1011.1
20210927110339 56 0 0.0 0.0 0.00 0.38 0.28 99 1011.1
20210927105840 56 0 0.0 0.0 0.00 0.38 0.28 99 1011.2
20210927105340 56 0 0.0 0.0 0.00 0.38 0.28 99 1011.2
20210927104839 56 0 0.0 0.0 0.03 0.38 0.28 99 1011.2
20210927104339 56 0 0.0 0.0 0.03 0.38 0.28 99 1011.0
20210927103840 56 0 0.0 0.0 0.03 0.38 0.28 99 1011.1
20210927103339 56 0 0.0 0.0 0.03 0.38 0.28 99 1011.1
20210927102839 56 0 0.0 0.0 0.05 0.38 0.28 99 1011.0
20210927102339 56 0 0.0 0.0 0.05 0.38 0.28 99 1011.1
20210927101839 56 0 0.0 0.0 0.07 0.38 0.28 99 1011.0
20210927101340 56 0 0.0 0.0 0.07 0.38 0.28 99 1011.0
20210927100839 56 0 0.0 0.0 0.10 0.38 0.28 99 1011.0
20210927100341 56 0 0.0 0.0 0.10 0.38 0.28 99 1011.0
20210927095839 56 0 0.0 0.0 0.11 0.28 0.28 99 1011.2
20210927095339 56 0 0.0 0.0 0.11 0.28 0.28 99 1011.2
20210927094839 56 0 0.0 0.0 0.09 0.28 0.28 99 1011.3
20210927094340 56 0 0.0 0.0 0.09 0.28 0.26 99 1011.2
20210927093839 56 0 0.0 0.0 0.09 0.28 0.25 99 1011.3
20210927093339 56 0 0.0 0.0 0.09 0.28 0.25 99 1011.5
20210927092839 57 0 0.0 0.0 0.07 0.28 0.25 99 1011.3
20210927092339 57 0 0.0 0.0 0.07 0.28 0.24 99 1011.3
20210927091839 57 0 0.0 0.0 0.05 0.28 0.23 99 1011.5
20210927091340 57 0 0.0 0.0 0.05 0.28 0.23 99 1011.1
20210927090838 57 0 0.0 0.0 0.02 0.28 0.21 99 1011.3
20210927090339 57 0 0.0 0.0 0.02 0.28 0.19 99 1011.2
20210927085838 57 0 0.0 0.0 0.01 0.26 0.18 99 1011.1
20210927085338 57 0 0.0 2.0 0.01 0.26 0.17 99 1010.9
20210927084838 57 0 0.0 2.0 0.01 0.26 0.17 99 1010.9
20210927084340 57 215 0.0 2.0 0.01 0.26 0.17 99 1011.0
20210927083838 57 208 0.0 6.0 0.01 0.26 0.16 99 1011.2
20210927083341 57 207 1.0 6.0 0.01 0.26 0.16 99 1011.0
20210927082839 57 214 3.0 6.0 0.08 0.26 0.16 99 1011.0
20210927082338 57 210 3.0 8.0 0.08 0.26 0.16 99 1010.9
20210927081838 57 219 4.0 8.0 0.13 0.26 0.16 99 1010.8
20210927081341 57 215 5.0 8.0 0.13 0.26 0.16 99 1010.7
20210927080838 58 214 6.0 13.0 0.16 0.26 0.16 98 1010.7
20210927080338 58 210 6.0 13.0 0.16 0.26 0.16 99 1010.6
20210927075838 58 228 7.0 13.0 0.16 0.16 0.16 99 1010.5
20210927075338 58 203 7.0 13.0 0.16 0.16 0.16 99 1010.5
20210927074838 58 238 9.0 13.0 0.15 0.16 0.16 99 1010.2
20210927074340 59 194 9.0 13.0 0.15 0.16 0.16 99 1010.0
20210927073838 59 204 9.0 12.0 0.15 0.15 0.15 99 1009.9
20210927073339 60 250 9.0 12.0 0.15 0.15 0.15 99 1009.7
20210927072840 60 207 8.0 10.0 0.08 0.15 0.15 99 1009.6
20210927072338 60 204 7.0 7.0 0.08 0.12 0.13 99 1009.5
20210927071838 60 205 5.0 9.0 0.03 0.10 0.08 98 1009.4
20210927071339 61 205 6.0 9.0 0.03 0.10 0.04 98 1009.3
20210927070838 61 191 7.0 9.0 0.00 0.10 0.03 98 1009.2
20210927065840 61 205 7.0 9.0 0.00 0.10 0.00 98 1009.0
20210927065338 61 201 7.0 9.0 0.00 0.10 0.10 98 1009.0
20210927064839 61 200 8.0 9.0 0.00 0.10 0.10 98 1008.8
20210927064340 60 201 6.0 9.0 0.00 0.10 0.10 98 1008.9
20210927063839 60 198 7.0 9.0 0.00 0.10 0.10 98 1008.8
20210927063342 60 196 7.0 9.0 0.00 0.10 0.10 98 1008.7
20210927062838 60 210 7.0 9.0 0.00 0.10 0.10 98 1008.8
20210927062338 60 200 7.0 11.0 0.00 0.10 0.10 98 1008.8
20210927061840 60 205 7.0 11.0 0.00 0.10 0.10 98 1008.9
20210927061340 60 203 8.0 11.0 0.00 0.10 0.10 98 1008.9
20210927060838 60 200 9.0 10.0 0.00 0.10 0.10 99 1008.9
20210927060338 60 180 8.0 10.0 0.00 0.10 0.10 98 1009.0
20210927055838 60 207 8.0 9.0 0.00 0.10 0.10 98 1009.0
20210927055338 60 217 7.0 9.0 0.00 0.10 0.10 98 1009.1
20210927054838 60 200 8.0 12.0 0.00 0.10 0.10 98 1009.0
20210927054340 60 211 8.0 12.0 0.00 0.10 0.10 98 1008.9
20210927053839 60 200 9.0 12.0 0.00 0.10 0.10 99 1008.7
20210927053338 60 204 9.0 11.0 0.00 0.10 0.10 99 1008.8
20210927052338 60 211 9.0 10.0 0.00 0.10 0.10 99 1008.8
20210927051839 60 193 8.0 10.0 0.00 0.10 0.10 99 1008.9
20210927051339 60 215 9.0 10.0 0.00 0.10 0.10 99 1008.8
20210927050838 59 204 8.0 10.0 0.00 0.10 0.10 99 1008.9
20210927050338 60 196 7.0 10.0 0.00 0.10 0.10 99 1008.9
20210927045838 59 200 8.0 11.0 0.00 0.10 0.10 99 1009.0
20210927045338 59 196 7.0 11.0 0.00 0.10 0.10 99 1009.0
20210927044838 59 214 8.0 11.0 0.00 0.10 0.10 99 1008.9
20210927044339 59 197 8.0 11.0 0.00 0.10 0.10 99 1008.9
20210927043840 59 203 8.0 13.0 0.00 0.10 0.10 99 1008.9
20210927043338 59 205 8.0 13.0 0.00 0.10 0.10 99 1008.8
20210927042838 59 204 9.0 13.0 0.00 0.10 0.10 99 1008.8
20210927042338 59 228 9.0 13.0 0.00 0.10 0.10 99 1008.6
20210927041838 59 200 8.0 13.0 0.00 0.10 0.10 99 1008.8
20210927041339 59 201 7.0 13.0 0.00 0.10 0.10 99 1008.7
20210927040349 60 194 8.0 19.0 0.00 0.10 0.10 99 1008.5
20210927035838 60 232 8.0 19.0 0.00 0.10 0.10 99 1008.4
20210927035338 60 193 8.0 11.0 0.00 0.10 0.10 99 1008.4
20210927034838 60 215 9.0 14.0 0.01 0.10 0.10 99 1008.3
20210927034339 60 233 9.0 14.0 0.01 0.10 0.10 99 1008.2
20210927033840 60 236 9.0 14.0 0.01 0.10 0.10 99 1008.4
20210927033338 61 231 9.0 12.0 0.01 0.10 0.10 99 1008.2
20210927032839 61 210 9.0 12.0 0.01 0.10 0.10 99 1008.3
20210927032338 61 191 9.0 12.0 0.01 0.10 0.10 99 1008.2
20210927031838 61 210 9.0 15.0 0.01 0.10 0.10 99 1008.0
20210927031339 61 200 9.0 15.0 0.01 0.10 0.10 99 1008.0
20210927030838 61 247 9.0 15.0 0.02 0.10 0.10 99 1007.9
20210927030338 61 211 9.0 13.0 0.02 0.10 0.10 99 1007.9
20210927025838 61 193 7.0 13.0 0.04 0.10 0.10 99 1008.1
20210927025338 62 207 8.0 13.0 0.04 0.10 0.10 99 1008.2
20210927024838 62 201 8.0 11.0 0.04 0.10 0.10 99 1008.1
20210927024339 62 198 7.0 13.0 0.04 0.10 0.10 99 1008.2
20210927023838 62 182 7.0 13.0 0.05 0.09 0.09 99 1008.2
20210927023339 62 197 7.0 13.0 0.05 0.09 0.09 99 1008.1
20210927022838 61 198 8.0 9.0 0.06 0.09 0.09 99 1008.0
20210927022338 61 201 6.0 9.0 0.06 0.09 0.09 98 1008.2
20210927021838 61 221 5.0 7.0 0.06 0.09 0.09 98 1008.0
20210927021340 61 205 6.0 7.0 0.06 0.09 0.09 98 1008.2
20210927020838 61 211 5.0 6.0 0.06 0.09 0.09 98 1008.1
20210927020338 61 205 4.0 5.0 0.06 0.08 0.09 98 1008.0
20210927015838 61 197 5.0 6.0 0.05 0.08 0.08 98 1008.1
20210927014839 61 207 3.0 6.0 0.04 0.06 0.06 98 1008.0
20210927014339 61 205 4.0 6.0 0.04 0.06 0.06 98 1008.1
20210927013838 61 208 3.0 6.0 0.03 0.05 0.05 98 1008.1
20210927013338 61 212 4.0 6.0 0.03 0.04 0.04 98 1008.2
20210927012839 61 207 4.0 7.0 0.02 0.04 0.04 98 1008.1
20210927012338 61 210 5.0 7.0 0.02 0.04 0.04 97 1008.1
20210927011838 61 200 4.0 7.0 0.03 0.03 0.03 97 1008.3
20210927010838 61 212 4.0 6.0 0.02 0.03 0.03 97 1008.3
20210927010340 61 210 3.0 6.0 0.02 0.03 0.03 97 1008.5
20210927005838 61 208 4.0 6.0 0.01 0.02 0.02 96 1008.4
20210927005338 61 200 2.0 6.0 0.01 0.01 0.02 96 1008.5
20210927004838 61 208 2.0 6.0 0.01 0.01 0.01 96 1008.5
20210927003838 61 201 2.0 3.0 0.01 0.01 0.01 95 1008.8
20210927003339 61 201 1.0 4.0 0.01 0.01 0.01 94 1008.8
20210927002838 62 203 3.0 4.0 0.01 0.01 0.01 93 1008.9
20210927002338 62 203 2.0 4.0 0.01 0.01 0.01 92 1009.0
20210927001839 62 201 3.0 6.0 0.00 0.00 0.01 91 1009.0
20210927001339 63 197 3.0 6.0 0.00 0.00 0.00 89 1009.0
20210927000838 63 208 5.0 6.0 0.00 0.00 0.00 87 1009.1
20210927000338 64 200 5.0 6.0 0.00 0.00 0.00 85 1009.0
20210926235838 64 215 4.0 6.0 0.00 0.00 0.00 84 1009.0
20210926235338 64 207 4.0 6.0 0.00 0.00 0.00 83 1009.1
20210926234838 64 200 4.0 6.0 0.00 0.00 0.00 83 1009.1
20210926234338 64 204 3.0 6.0 0.00 0.00 0.00 82 1009.2
20210926233838 64 201 4.0 6.0 0.00 0.00 0.00 82 1009.3
20210926233339 64 204 4.0 6.0 0.00 0.00 0.00 82 1009.4
20210926232838 64 208 3.0 6.0 0.00 0.00 0.00 81 1009.4
20210926232338 64 204 4.0 6.0 0.00 0.00 0.00 81 1009.4
20210926231838 64 203 4.0 6.0 0.00 0.00 0.00 80 1009.5
20210926231339 64 214 3.0 6.0 0.00 0.00 0.00 80 1009.6
20210926230838 64 198 5.0 6.0 0.00 0.00 0.00 79 1009.6
20210926230338 65 203 4.0 5.0 0.00 0.00 0.00 79 1009.8
20210926225839 65 203 4.0 6.0 0.00 0.00 0.00 78 1010.0
20210926225338 65 204 3.0 6.0 0.00 0.00 0.00 78 1010.1
20210926224838 65 193 2.0 6.0 0.00 0.00 0.00 77 1010.2
20210926224339 65 214 4.0 5.0 0.00 0.00 0.00 77 1010.3
20210926223838 66 200 3.0 5.0 0.00 0.00 0.00 77 1010.4
20210926223340 66 200 4.0 5.0 0.00 0.00 0.00 76 1010.4
20210926222838 66 200 4.0 6.0 0.00 0.00 0.00 75 1010.6
20210926222338 66 212 4.0 6.0 0.00 0.00 0.00 74 1010.6
20210926221839 67 196 4.0 6.0 0.00 0.00 0.00 74 1010.6
20210926220840 67 200 4.0 5.0 0.00 0.00 0.00 74 1010.8
20210926220338 67 200 4.0 5.0 0.00 0.00 0.00 74 1010.7
20210926215838 67 200 4.0 7.0 0.00 0.00 0.00 73 1010.9
20210926215338 67 207 4.0 7.0 0.00 0.00 0.00 74 1010.8
20210926214838 67 201 4.0 7.0 0.00 0.00 0.00 73 1010.9
20210926213838 67 208 5.0 6.0 0.00 0.00 0.00 75 1011.0
20210926213338 66 200 4.0 6.0 0.00 0.00 0.00 76 1011.0
20210926212838 66 194 4.0 6.0 0.00 0.00 0.00 77 1011.2
20210926212338 65 205 4.0 5.0 0.00 0.00 0.00 78 1011.2
20210926211837 65 214 3.0 5.0 0.00 0.00 0.00 79 1011.4
20210926211339 65 217 3.0 5.0 0.00 0.00 0.00 78 1011.5
20210926210838 65 210 3.0 5.0 0.00 0.00 0.00 78 1011.6
20210926210337 65 207 4.0 5.0 0.00 0.00 0.00 78 1011.5
20210926205838 65 212 4.0 5.0 0.00 0.00 0.00 77 1011.6
20210926205338 65 211 3.0 5.0 0.00 0.00 0.00 76 1011.7
20210926204837 66 210 3.0 4.0 0.00 0.00 0.00 76 1011.8
20210926204339 66 204 2.0 4.0 0.00 0.00 0.00 75 1011.8
20210926203837 66 212 2.0 4.0 0.00 0.00 0.00 75 1011.8
20210926203338 66 211 3.0 6.0 0.00 0.00 0.00 75 1011.9
20210926202838 67 205 3.0 6.0 0.00 0.00 0.00 74 1011.9
20210926202338 67 238 3.0 6.0 0.00 0.00 0.00 73 1011.9
20210926201838 67 208 3.0 4.0 0.00 0.00 0.00 73 1012.0
20210926201338 66 235 3.0 5.0 0.00 0.00 0.00 75 1012.1
20210926200838 65 225 3.0 5.0 0.00 0.00 0.00 77 1012.2
20210926200337 65 232 3.0 5.0 0.00 0.00 0.00 76 1012.2
20210926195837 65 215 3.0 5.0 0.00 0.00 0.00 76 1012.3
20210926195338 65 218 4.0 6.0 0.00 0.00 0.00 76 1012.3
20210926194837 65 217 3.0 6.0 0.00 0.00 0.00 76 1012.4
20210926194339 65 252 3.0 6.0 0.00 0.00 0.00 75 1012.5
20210926193838 66 264 3.0 6.0 0.00 0.00 0.00 74 1012.5
20210926193337 66 210 3.0 6.0 0.00 0.00 0.00 74 1012.5
20210926192837 66 247 4.0 6.0 0.00 0.00 0.00 73 1012.6
20210926192338 67 260 4.0 6.0 0.00 0.00 0.00 71 1012.6
20210926191838 68 208 4.0 6.0 0.00 0.00 0.00 71 1012.6
20210926191338 68 233 3.0 6.0 0.00 0.00 0.00 71 1012.5
20210926190838 67 208 4.0 4.0 0.00 0.00 0.00 72 1012.6
20210926190337 67 212 3.0 4.0 0.00 0.00 0.00 73 1012.6
20210926185837 67 212 3.0 4.0 0.00 0.00 0.00 72 1012.7
20210926185337 67 211 2.0 4.0 0.00 0.00 0.00 72 1012.7
20210926184838 67 208 3.0 4.0 0.00 0.00 0.00 71 1012.8
20210926184338 68 212 3.0 5.0 0.00 0.00 0.00 72 1012.7
20210926183838 68 208 3.0 5.0 0.00 0.00 0.00 71 1012.7
20210926183337 67 208 3.0 5.0 0.00 0.00 0.00 72 1012.7
20210926182837 67 198 3.0 6.0 0.00 0.00 0.00 71 1012.6
20210926182337 67 193 4.0 6.0 0.00 0.00 0.00 73 1012.6
20210926181837 66 203 4.0 6.0 0.00 0.00 0.00 73 1012.6
20210926180837 65 197 4.0 5.0 0.00 0.00 0.00 75 1012.6
20210926180338 65 198 4.0 6.0 0.00 0.00 0.00 77 1012.6
20210926175838 64 200 3.0 6.0 0.00 0.00 0.00 78 1012.8
20210926175337 64 198 3.0 6.0 0.00 0.00 0.00 77 1012.9
20210926174837 64 197 4.0 5.0 0.00 0.00 0.00 76 1012.9
20210926174338 64 187 2.0 5.0 0.00 0.00 0.00 75 1012.9
20210926173839 64 193 2.0 4.0 0.00 0.00 0.00 74 1012.9
20210926173337 64 0 2.0 3.0 0.00 0.00 0.00 77 1013.0